Location: Caltech
(34.1382°N, 118.1253°W)
Time: 23:12:25
(UTC-07:00)

Cosmos 2360 Rocket - Visible Passes

Search period start: 23 April 2014 00:00
Search period end: 03 May 2014 00:00
Orbit: 835 x 845 km, 71.0° (Epoch: 22 April)

Date Brightness Start Highest point End Pass type
(mag) Time Alt. Az. Time Alt. Az. Time Alt. Az.
29 Apr 4.1 05:28:28 10° SSE 05:33:21 31° ESE 05:38:15 10° NE visible
30 Apr 4.1 05:13:02 10° SSE 05:17:49 29° ESE 05:22:36 10° NE visible
01 May 4.2 04:57:37 10° SSE 05:02:16 27° ESE 05:06:56 10° NE visible
02 May 4.2 04:42:13 10° SSE 04:46:44 25° ESE 04:51:15 10° NE visible
